,,,PA_Meas_PMT16A,,PR_Meas_QMR101_102,,RH_Meas_QMH101,,SR_Meas_QMS101,,TA_Meas_QMH101,,GenWind,,GenWind,
date,time,status,PA,status,PR,status,RH,status,SR,status,TA,status,DirAvg,status,SpdAvg,
2009-12-16, 00:00:04,VALID,1002.14,VALID,0,VALID,91.2731,VALID,0,VALID,23.9531,VALID,83,VALID,0.760156,
2009-12-16, 00:01:04,VALID,1002.15,VALID,0,VALID,91.0595,VALID,0,VALID,23.8945,VALID,84,VALID,0.461719,
2009-12-16, 00:02:04,VALID,1002.16,VALID,0,VALID,91.0366,VALID,0,VALID,23.8165,VALID,86,VALID,0.548828,
2009-12-16, 00:03:04,VALID,1002.15,VALID,0,VALID,90.8917,VALID,0,VALID,23.7579,VALID,86,VALID,0,
2009-12-16, 00:04:04,VALID,1002.18,VALID,0,VALID,90.8688,VALID,0.112286,VALID,23.6994,VALID,86,VALID,0,
2009-12-16, 00:05:04,VALID,1002.17,VALID,0,VALID,90.9374,VALID,0,VALID,23.6409,VALID,86,VALID,0,
2009-12-16, 00:06:04,VALID,1002.18,VALID,0,VALID,90.9832,VALID,0,VALID,23.5823,VALID,85,VALID,0,
2009-12-16, 00:07:04,VALID,1002.2,VALID,0,VALID,91.1892,VALID,0,VALID,23.5451,VALID,85,VALID,0,
2009-12-16, 00:08:04,VALID,1002.23,VALID,0,VALID,91.5097,VALID,0,VALID,23.5451,VALID,85,VALID,0,
2009-12-16, 00:09:04,VALID,1002.21,VALID,0,VALID,91.7614,VALID,0,VALID,23.5433,VALID,85,VALID,0,
2009-12-16, 00:10:04,VALID,1002.22,VALID,0,VALID,91.9751,VALID,0.112286,VALID,23.5628,VALID,85,VALID,0,
2009-12-16, 00:11:04,VALID,1002.19,VALID,0,VALID,92.1277,VALID,0,VALID,23.5823,VALID,85,VALID,0,
2009-12-16, 00:12:04,VALID,1002.18,VALID,0,VALID,92.2192,VALID,0,VALID,23.6232,VALID,85,VALID,0,
2009-12-16, 00:13:04,VALID,1002.16,VALID,0,VALID,92.2345,VALID,0,VALID,23.6232,VALID,85,VALID,0,
2009-12-16, 00:14:04,VALID,1002.13,VALID,0,VALID,92.2497,VALID,0,VALID,23.5823,VALID,85,VALID,0,
2009-12-16, 00:15:04,VALID,1002.13,VALID,0,VALID,92.3871,VALID,0,VALID,23.6019,VALID,85,VALID,0,
2009-12-16, 00:16:04,VALID,1002.1,VALID,0,VALID,92.5397,VALID,0,VALID,23.6427,VALID,85,VALID,0,
2009-12-16, 00:17:04,VALID,1002.13,VALID,0,VALID,92.6312,VALID,0.112286,VALID,23.6817,VALID,85,VALID,0,
2009-12-16, 00:18:04,VALID,1002.1,VALID,0,VALID,92.6312,VALID,0,VALID,23.6817,VALID,85,VALID,0,
2009-12-16, 00:19:04,VALID,1002.09,VALID,0,VALID,92.6236,VALID,0.112286,VALID,23.6994,VALID,88,VALID,0,
2009-12-16, 00:20:04,VALID,1002.07,VALID,0,VALID,92.3947,VALID,0,VALID,23.6799,VALID,88,VALID,0,
2009-12-16, 00:21:04,VALID,1002.09,VALID,0,VALID,92.2955,VALID,0.112286,VALID,23.7012,VALID,88,VALID,0,
2009-12-16, 00:22:04,VALID,1002.09,VALID,0,VALID,92.265,VALID,0,VALID,23.6604,VALID,88,VALID,0,
2009-12-16, 00:23:04,VALID,1002.07,VALID,0,VALID,92.326,VALID,0,VALID,23.6622,VALID,88,VALID,0,
2009-12-16, 00:24:04,VALID,1002.06,VALID,0,VALID,92.4481,VALID,0,VALID,23.7012,VALID,88,VALID,0,
2009-12-16, 00:25:04,VALID,1002.02,VALID,0,VALID,92.5091,VALID,0,VALID,23.7207,VALID,88,VALID,0,
2009-12-16, 00:26:04,VALID,1002.02,VALID,0,VALID,92.5091,VALID,0,VALID,23.7579,VALID,89,VALID,0,
2009-12-16, 00:27:04,VALID,1002,VALID,0,VALID,92.326,VALID,0,VALID,23.7579,VALID,88,VALID,0,
2009-12-16, 00:28:04,VALID,1001.99,VALID,0,VALID,92.2268,VALID,0.112286,VALID,23.7793,VALID,88,VALID,0,
2009-12-16, 00:29:04,VALID,1001.98,VALID,0,VALID,92.0743,VALID,0,VALID,23.7793,VALID,88,VALID,0,
2009-12-16, 00:30:04,VALID,1001.95,VALID,0,VALID,92.0132,VALID,0,VALID,23.7579,VALID,88,VALID,0,
2009-12-16, 00:31:04,VALID,1001.99,VALID,0,VALID,91.9445,VALID,0,VALID,23.7793,VALID,106,VALID,0,
2009-12-16, 00:32:04,VALID,1001.97,VALID,0,VALID,92.0514,VALID,0,VALID,23.797,VALID,110,VALID,0,
2009-12-16, 00:33:04,VALID,1001.95,VALID,0,VALID,92.1658,VALID,0.112286,VALID,23.836,VALID,110,VALID,0,
2009-12-16, 00:34:04,VALID,1001.95,VALID,0,VALID,92.0361,VALID,0,VALID,23.836,VALID,110,VALID,0,
2009-12-16, 00:35:04,VALID,1001.97,VALID,0,VALID,91.9598,VALID,0,VALID,23.836,VALID,110,VALID,0,
2009-12-16, 00:36:04,VALID,1001.94,VALID,0,VALID,91.7767,VALID,0,VALID,23.8165,VALID,110,VALID,0,
2009-12-16, 00:37:04,VALID,1001.95,VALID,0,VALID,91.5783,VALID,0,VALID,23.7775,VALID,78,VALID,0,
2009-12-16, 00:38:04,VALID,1001.94,VALID,0,VALID,91.5097,VALID,0,VALID,23.7579,VALID,78,VALID,0,
2009-12-16, 00:39:04,VALID,1001.92,VALID,0,VALID,91.4791,VALID,0,VALID,23.7189,VALID,78,VALID,0,
2009-12-16, 00:40:04,VALID,1001.93,VALID,0,VALID,91.5478,VALID,0,VALID,23.6799,VALID,78,VALID,0,
2009-12-16, 00:41:04,VALID,1001.89,VALID,0,VALID,91.4868,VALID,0,VALID,23.6817,VALID,78,VALID,0,
2009-12-16, 00:42:04,VALID,1001.91,VALID,0,VALID,91.6394,VALID,0,VALID,23.6622,VALID,78,VALID,0,
2009-12-16, 00:43:04,VALID,1001.91,VALID,0,VALID,91.7233,VALID,0,VALID,23.6427,VALID,78,VALID,0,
2009-12-16, 00:44:04,VALID,1001.86,VALID,0,VALID,91.8988,VALID,0,VALID,23.6214,VALID,78,VALID,0,
2009-12-16, 00:45:04,VALID,1001.84,VALID,0,VALID,91.9598,VALID,0,VALID,23.6214,VALID,78,VALID,0,
2009-12-16, 00:46:04,VALID,1001.88,VALID,0,VALID,92.059,VALID,0,VALID,23.6019,VALID,78,VALID,0,
2009-12-16, 00:47:04,VALID,1001.84,VALID,0,VALID,92.1277,VALID,0,VALID,23.6019,VALID,78,VALID,0,
2009-12-16, 00:48:04,VALID,1001.85,VALID,0,VALID,92.1506,VALID,0,VALID,23.5823,VALID,78,VALID,0,
2009-12-16, 00:49:04,VALID,1001.82,VALID,0,VALID,92.3337,VALID,0,VALID,23.5823,VALID,78,VALID,0,
2009-12-16, 00:50:04,VALID,1001.81,VALID,0,VALID,92.5473,VALID,0,VALID,23.6427,VALID,78,VALID,0,
2009-12-16, 00:51:04,VALID,1001.81,VALID,0,VALID,92.5854,VALID,0.112286,VALID,23.6604,VALID,78,VALID,0,
2009-12-16, 00:52:04,VALID,1001.79,VALID,0,VALID,92.5702,VALID,0.112286,VALID,23.6604,VALID,78,VALID,0,
2009-12-16, 00:53:04,VALID,1001.77,VALID,0,VALID,92.4786,VALID,0,VALID,23.6409,VALID,78,VALID,0,
2009-12-16, 00:54:04,VALID,1001.74,VALID,0,VALID,92.5397,VALID,0,VALID,23.6604,VALID,78,VALID,0,
2009-12-16, 00:55:04,VALID,1001.75,VALID,0,VALID,92.616,VALID,0,VALID,23.6604,VALID,78,VALID,0,
2009-12-16, 00:56:04,VALID,1001.73,VALID,0,VALID,92.1429,VALID,0,VALID,23.6214,VALID,71,VALID,0,
2009-12-16, 00:57:04,VALID,1001.74,VALID,0,VALID,92.059,VALID,0,VALID,23.5451,VALID,71,VALID,0,
2009-12-16, 00:58:04,VALID,1001.73,VALID,0,VALID,92.1887,VALID,0,VALID,23.5256,VALID,71,VALID,0,
2009-12-16, 00:59:04,VALID,1001.71,VALID,0,VALID,91.9827,VALID,0,VALID,23.4475,VALID,71,VALID,0,
2009-12-16, 01:00:04,VALID,1001.73,VALID,0,VALID,91.8225,VALID,0,VALID,23.3872,VALID,71,VALID,0.546484,
2009-12-16, 01:01:04,VALID,1001.71,VALID,0,VALID,91.853,VALID,0,VALID,23.35,VALID,71,VALID,0.43125,
2009-12-16, 01:02:04,VALID,1001.69,VALID,0,VALID,91.8377,VALID,0,VALID,23.2915,VALID,71,VALID,0.494922,
2009-12-16, 01:03:04,VALID,1001.67,VALID,0,VALID,91.9598,VALID,0,VALID,23.2719,VALID,71,VALID,0.662891,
2009-12-16, 01:04:04,VALID,1001.65,VALID,0,VALID,92.3566,VALID,0,VALID,23.2915,VALID,71,VALID,0.761328,
2009-12-16, 01:05:04,VALID,1001.66,VALID,0,VALID,92.7304,VALID,0,VALID,23.35,VALID,72,VALID,0.937891,
2009-12-16, 01:06:04,VALID,1001.63,VALID,0,VALID,92.8143,VALID,0,VALID,23.4298,VALID,72,VALID,0.721484,
2009-12-16, 01:07:04,VALID,1001.65,VALID,0,VALID,92.7228,VALID,0,VALID,23.428,VALID,65,VALID,0.880859,
2009-12-16, 01:08:04,VALID,1001.62,VALID,0,VALID,92.3031,VALID,0,VALID,23.389,VALID,58,VALID,0.615234,
2009-12-16, 01:09:04,VALID,1001.65,VALID,0,VALID,92.3413,VALID,0,VALID,23.35,VALID,58,VALID,0.733203,
2009-12-16, 01:10:04,VALID,1001.66,VALID,0,VALID,92.3718,VALID,0,VALID,23.35,VALID,58,VALID,0.406641,
2009-12-16, 01:11:04,VALID,1001.65,VALID,0,VALID,92.532,VALID,0,VALID,23.389,VALID,58,VALID,0.253516,
2009-12-16, 01:12:04,VALID,1001.63,VALID,0,VALID,92.6541,VALID,0.112286,VALID,23.4475,VALID,58,VALID,0.4,
2009-12-16, 01:13:04,VALID,1001.64,VALID,0,VALID,92.677,VALID,0.112286,VALID,23.4458,VALID,60,VALID,0.296094,
2009-12-16, 01:14:04,VALID,1001.61,VALID,0,VALID,92.677,VALID,0,VALID,23.4653,VALID,60,VALID,0,
2009-12-16, 01:15:04,VALID,1001.63,VALID,0,VALID,92.5702,VALID,0,VALID,23.4653,VALID,60,VALID,0,
2009-12-16, 01:16:04,VALID,1001.6,VALID,0,VALID,92.4557,VALID,0,VALID,23.4458,VALID,60,VALID,0,
2009-12-16, 01:17:04,VALID,1001.61,VALID,0,VALID,92.3794,VALID,0,VALID,23.4475,VALID,60,VALID,0,
2009-12-16, 01:18:04,VALID,1001.59,VALID,0,VALID,92.2726,VALID,0,VALID,23.4085,VALID,60,VALID,0,
2009-12-16, 01:19:04,VALID,1001.59,VALID,0,VALID,92.2421,VALID,0.112286,VALID,23.3482,VALID,60,VALID,0,
2009-12-16, 01:20:04,VALID,1001.59,VALID,0,VALID,92.2116,VALID,0.112286,VALID,23.3092,VALID,60,VALID,0,
2009-12-16, 01:21:04,VALID,1001.58,VALID,0,VALID,92.1734,VALID,0,VALID,23.2897,VALID,60,VALID,0,
2009-12-16, 01:22:04,VALID,1001.54,VALID,0,VALID,92.1277,VALID,0,VALID,23.2524,VALID,60,VALID,0,
2009-12-16, 01:23:04,VALID,1001.56,VALID,0,VALID,92.0743,VALID,0,VALID,23.2134,VALID,60,VALID,0,
2009-12-16, 01:24:04,VALID,1001.53,VALID,0,VALID,92.3794,VALID,0,VALID,23.1921,VALID,81,VALID,0,
2009-12-16, 01:25:04,VALID,1001.53,VALID,0,VALID,92.7914,VALID,0,VALID,23.2897,VALID,127,VALID,0.551953,
2009-12-16, 01:26:04,VALID,1001.51,VALID,0,VALID,92.883,VALID,0,VALID,23.3677,VALID,112,VALID,0.637109,
2009-12-16, 01:27:04,VALID,1001.53,VALID,0,VALID,92.8296,VALID,0,VALID,23.389,VALID,84,VALID,0.709375,
2009-12-16, 01:28:04,VALID,1001.54,VALID,0,VALID,92.3642,VALID,0,VALID,23.3305,VALID,74,VALID,0.89375,
2009-12-16, 01:29:04,VALID,1001.52,VALID,0,VALID,92.2192,VALID,0,VALID,23.2719,VALID,68,VALID,0.908984,
2009-12-16, 01:30:04,VALID,1001.56,VALID,0,VALID,92.1506,VALID,0,VALID,23.2719,VALID,68,VALID,0.739062,
2009-12-16, 01:31:04,VALID,1001.54,VALID,0,VALID,92.0437,VALID,0,VALID,23.2134,VALID,68,VALID,0.408594,
2009-12-16, 01:32:04,VALID,1001.53,VALID,0,VALID,91.9827,VALID,0,VALID,23.1744,VALID,68,VALID,0.285156,
2009-12-16, 01:33:04,VALID,1001.52,VALID,0,VALID,92.2345,VALID,0,VALID,23.1939,VALID,68,VALID,0.180078,
2009-12-16, 01:34:04,VALID,1001.54,VALID,0,VALID,92.2879,VALID,0,VALID,23.1726,VALID,68,VALID,0.16875,
2009-12-16, 01:35:04,VALID,1001.54,VALID,0,VALID,92.3184,VALID,0,VALID,23.1744,VALID,68,VALID,0.0496094,
2009-12-16, 01:36:04,VALID,1001.53,VALID,0,VALID,92.3489,VALID,0,VALID,23.1726,VALID,68,VALID,0,
2009-12-16, 01:37:04,VALID,1001.5,VALID,0,VALID,92.5244,VALID,0,VALID,23.2134,VALID,68,VALID,0.0785156,
2009-12-16, 01:38:04,VALID,1001.5,VALID,0,VALID,92.3947,VALID,0,VALID,23.1939,VALID,68,VALID,0,
2009-12-16, 01:39:04,VALID,1001.47,VALID,0,VALID,92.4023,VALID,0,VALID,23.1744,VALID,68,VALID,0,
2009-12-16, 01:40:04,VALID,1001.46,VALID,0,VALID,92.5626,VALID,0,VALID,23.1531,VALID,68,VALID,0,
2009-12-16, 01:41:04,VALID,1001.47,VALID,0,VALID,92.6617,VALID,0,VALID,23.1939,VALID,68,VALID,0,
2009-12-16, 01:42:04,VALID,1001.49,VALID,0,VALID,92.616,VALID,0,VALID,23.1744,VALID,61,VALID,0,
2009-12-16, 01:43:04,VALID,1001.48,VALID,0,VALID,92.9517,VALID,0,VALID,23.2329,VALID,60,VALID,0,
2009-12-16, 01:44:04,VALID,1001.45,VALID,0,VALID,92.9974,VALID,0,VALID,23.2702,VALID,61,VALID,0.670313,
2009-12-16, 01:45:04,VALID,1001.45,VALID,0,VALID,93.1348,VALID,0,VALID,23.3092,VALID,64,VALID,0.782812,
2009-12-16, 01:46:04,VALID,1001.45,VALID,0,VALID,93.1729,VALID,0,VALID,23.389,VALID,48,VALID,0.619141,
2009-12-16, 01:47:04,VALID,1001.44,VALID,0,VALID,93.15,VALID,0,VALID,23.428,VALID,48,VALID,0.325391,
2009-12-16, 01:48:04,VALID,1001.42,VALID,0,VALID,93.0585,VALID,0,VALID,23.4263,VALID,48,VALID,0.414844,
2009-12-16, 01:49:04,VALID,1001.38,VALID,0,VALID,93.1195,VALID,0,VALID,23.4458,VALID,48,VALID,0.510938,
2009-12-16, 01:50:04,VALID,1001.36,VALID,0,VALID,93.1195,VALID,0,VALID,23.4866,VALID,48,VALID,0.586719,
2009-12-16, 01:51:04,VALID,1001.32,VALID,0,VALID,92.9517,VALID,0,VALID,23.4458,VALID,48,VALID,0.771484,
2009-12-16, 01:52:04,VALID,1001.32,VALID,0,VALID,92.9288,VALID,0,VALID,23.4475,VALID,59,VALID,1.06602,
2009-12-16, 01:53:04,VALID,1001.33,VALID,0,VALID,92.9822,VALID,0,VALID,23.4866,VALID,59,VALID,0.925781,
2009-12-16, 01:54:04,VALID,1001.31,VALID,0,VALID,92.9822,VALID,0,VALID,23.4866,VALID,56,VALID,1.00703,
2009-12-16, 01:55:04,VALID,1001.28,VALID,0,VALID,92.8754,VALID,0,VALID,23.5256,VALID,57,VALID,0.974609,
2009-12-16, 01:56:04,VALID,1001.29,VALID,0,VALID,92.4939,VALID,0,VALID,23.4263,VALID,57,VALID,0.978125,
2009-12-16, 01:57:04,VALID,1001.3,VALID,0,VALID,92.6083,VALID,0.112286,VALID,23.4653,VALID,67,VALID,1.10234,
2009-12-16, 01:58:04,VALID,1001.31,VALID,0,VALID,92.3566,VALID,0.112286,VALID,23.4067,VALID,70,VALID,0.833594,
2009-12-16, 01:59:04,VALID,1001.29,VALID,0,VALID,92.3947,VALID,0,VALID,23.428,VALID,71,VALID,0.755469,
2009-12-16, 02:00:04,VALID,1001.29,VALID,0,VALID,92.3031,VALID,0,VALID,23.4085,VALID,71,VALID,0.511328,
2009-12-16, 02:01:04,VALID,1001.34,VALID,0,VALID,92.2116,VALID,0,VALID,23.389,VALID,67,VALID,0.382031,
2009-12-16, 02:02:04,VALID,1001.32,VALID,0,VALID,92.0285,VALID,0,VALID,23.2897,VALID,67,VALID,0.0148437,
2009-12-16, 02:03:04,VALID,1001.34,VALID,0,VALID,92.0437,VALID,0,VALID,23.2915,VALID,67,VALID,0,
2009-12-16, 02:04:04,VALID,1001.34,VALID,0,VALID,92.1734,VALID,0,VALID,23.2719,VALID,54,VALID,0.00429688,
2009-12-16, 02:05:04,VALID,1001.38,VALID,0,VALID,92.12,VALID,0,VALID,23.2312,VALID,50,VALID,0,
2009-12-16, 02:06:04,VALID,1001.36,VALID,0,VALID,92.1811,VALID,0,VALID,23.2134,VALID,48,VALID,0,
2009-12-16, 02:07:04,VALID,1001.38,VALID,0,VALID,92.2803,VALID,0,VALID,23.2329,VALID,36,VALID,0,
2009-12-16, 02:08:04,VALID,1001.36,VALID,0,VALID,92.41,VALID,0,VALID,23.2117,VALID,23,VALID,0,
2009-12-16, 02:09:04,VALID,1001.37,VALID,0,VALID,92.1582,VALID,0,VALID,23.1744,VALID,23,VALID,0,
2009-12-16, 02:10:04,VALID,1001.34,VALID,0,VALID,92.2421,VALID,0,VALID,23.1354,VALID,23,VALID,0,
2009-12-16, 02:11:04,VALID,1001.35,VALID,0,VALID,92.3947,VALID,0,VALID,23.1336,VALID,23,VALID,0,
2009-12-16, 02:12:04,VALID,1001.34,VALID,0,VALID,92.5244,VALID,0,VALID,23.1744,VALID,23,VALID,0,
2009-12-16, 02:13:04,VALID,1001.36,VALID,0,VALID,92.6083,VALID,0,VALID,23.1939,VALID,23,VALID,0,
2009-12-16, 02:14:04,VALID,1001.38,VALID,0,VALID,92.7914,VALID,0,VALID,23.2329,VALID,23,VALID,0,
2009-12-16, 02:15:04,VALID,1001.38,VALID,0,VALID,92.9288,VALID,0,VALID,23.2915,VALID,22,VALID,0,
2009-12-16, 02:16:04,VALID,1001.4,VALID,0,VALID,92.9517,VALID,0,VALID,23.3305,VALID,20,VALID,0,
2009-12-16, 02:17:04,VALID,1001.37,VALID,0,VALID,92.9364,VALID,0,VALID,23.3287,VALID,351,VALID,0.445703,
2009-12-16, 02:18:04,VALID,1001.35,VALID,0,VALID,92.9593,VALID,0,VALID,23.3677,VALID,345,VALID,0.385938,
2009-12-16, 02:19:04,VALID,1001.34,VALID,0,VALID,92.9364,VALID,0,VALID,23.3872,VALID,345,VALID,0,
2009-12-16, 02:20:04,VALID,1001.34,VALID,0,VALID,92.8983,VALID,0,VALID,23.389,VALID,345,VALID,0,
2009-12-16, 02:21:04,VALID,1001.31,VALID,0,VALID,92.7991,VALID,0,VALID,23.3677,VALID,345,VALID,0,
2009-12-16, 02:22:04,VALID,1001.28,VALID,0,VALID,92.6999,VALID,0,VALID,23.3482,VALID,345,VALID,0,
2009-12-16, 02:23:04,VALID,1001.28,VALID,0,VALID,92.7075,VALID,0,VALID,23.3092,VALID,345,VALID,0,
2009-12-16, 02:24:04,VALID,1001.27,VALID,0,VALID,92.7304,VALID,0,VALID,23.3092,VALID,345,VALID,0,
2009-12-16, 02:25:04,VALID,1001.22,VALID,0,VALID,92.6541,VALID,0.112286,VALID,23.3092,VALID,345,VALID,0,
2009-12-16, 02:26:04,VALID,1001.21,VALID,0,VALID,92.6388,VALID,0,VALID,23.3305,VALID,60,VALID,0.537109,
2009-12-16, 02:27:04,VALID,1001.18,VALID,0,VALID,92.4786,VALID,0,VALID,23.311,VALID,78,VALID,0.519922,
2009-12-16, 02:28:04,VALID,1001.15,VALID,0,VALID,92.4176,VALID,0,VALID,23.2719,VALID,78,VALID,0.301172,
2009-12-16, 02:29:04,VALID,1001.14,VALID,0,VALID,92.4023,VALID,0,VALID,23.2915,VALID,78,VALID,0,
2009-12-16, 02:30:04,VALID,1001.13,VALID,0,VALID,92.3871,VALID,0,VALID,23.2702,VALID,78,VALID,0,
2009-12-16, 02:31:04,VALID,1001.1,VALID,0,VALID,92.3031,VALID,0,VALID,23.2507,VALID,78,VALID,0,
2009-12-16, 02:32:04,VALID,1001.09,VALID,0,VALID,92.1887,VALID,0,VALID,23.2117,VALID,78,VALID,0,
2009-12-16, 02:33:04,VALID,1001.06,VALID,0,VALID,92.1734,VALID,0,VALID,23.1726,VALID,78,VALID,0,
2009-12-16, 02:34:04,VALID,1001.07,VALID,0,VALID,92.2421,VALID,0,VALID,23.1726,VALID,78,VALID,0,
2009-12-16, 02:35:04,VALID,1001.06,VALID,0,VALID,92.3566,VALID,0,VALID,23.2134,VALID,78,VALID,0,
2009-12-16, 02:36:04,VALID,1001.08,VALID,0,VALID,92.3794,VALID,0,VALID,23.1921,VALID,78,VALID,0,
2009-12-16, 02:37:04,VALID,1001.07,VALID,0,VALID,92.2726,VALID,0,VALID,23.1726,VALID,76,VALID,0,
2009-12-16, 02:38:04,VALID,1001.11,VALID,0,VALID,91.9293,VALID,0,VALID,23.1159,VALID,75,VALID,0.471875,
2009-12-16, 02:39:04,VALID,1001.12,VALID,0,VALID,91.5783,VALID,0,VALID,23.0183,VALID,71,VALID,1.07969,
2009-12-16, 02:40:04,VALID,1001.16,VALID,0,VALID,91.7996,VALID,0,VALID,22.9598,VALID,66,VALID,1.08516,
2009-12-16, 02:41:04,VALID,1001.14,VALID,0,VALID,91.8835,VALID,0,VALID,22.9013,VALID,59,VALID,0.687109,
2009-12-16, 02:42:04,VALID,1001.16,VALID,0,VALID,91.9598,VALID,0,VALID,22.8818,VALID,55,VALID,0.487109,
2009-12-16, 02:43:04,VALID,1001.16,VALID,0,VALID,92.12,VALID,0,VALID,22.8623,VALID,55,VALID,0.446484,
2009-12-16, 02:44:04,VALID,1001.15,VALID,0,VALID,92.1277,VALID,0,VALID,22.8232,VALID,45,VALID,0.596094,
2009-12-16, 02:45:04,VALID,1001.14,VALID,0,VALID,92.204,VALID,0,VALID,22.7842,VALID,43,VALID,0.864453,
2009-12-16, 02:46:04,VALID,1001.17,VALID,0,VALID,92.3718,VALID,0,VALID,22.763,VALID,46,VALID,0.952734,
2009-12-16, 02:47:04,VALID,1001.17,VALID,0,VALID,92.6083,VALID,0,VALID,22.8037,VALID,51,VALID,0.940625,
2009-12-16, 02:48:04,VALID,1001.18,VALID,0,VALID,92.6923,VALID,0,VALID,22.8037,VALID,69,VALID,1.03359,
2009-12-16, 02:49:04,VALID,1001.21,VALID,0,VALID,92.7991,VALID,0,VALID,22.802,VALID,73,VALID,1.24297,
2009-12-16, 02:50:04,VALID,1001.19,VALID,0,VALID,92.7075,VALID,0,VALID,22.8232,VALID,79,VALID,0.938672,
2009-12-16, 02:51:04,VALID,1001.22,VALID,0,VALID,92.7685,VALID,0,VALID,22.802,VALID,91,VALID,0.530469,
2009-12-16, 02:52:04,VALID,1001.22,VALID,0,VALID,92.7914,VALID,0,VALID,22.8232,VALID,97,VALID,0.495703,
2009-12-16, 02:53:04,VALID,1001.24,VALID,0,VALID,92.8448,VALID,0.112286,VALID,22.7825,VALID,97,VALID,0.507422,
2009-12-16, 02:54:04,VALID,1001.23,VALID,0,VALID,92.8067,VALID,0.112286,VALID,22.7825,VALID,97,VALID,0.39375,
2009-12-16, 02:55:04,VALID,1001.22,VALID,0,VALID,92.8296,VALID,0.112286,VALID,22.7825,VALID,97,VALID,0.532031,
2009-12-16, 02:56:04,VALID,1001.2,VALID,0,VALID,92.7991,VALID,0,VALID,22.7842,VALID,97,VALID,0.389062,
2009-12-16, 02:57:04,VALID,1001.18,VALID,0,VALID,92.7685,VALID,0,VALID,22.7452,VALID,97,VALID,0.0296875,
2009-12-16, 02:58:04,VALID,1001.19,VALID,0,VALID,92.7609,VALID,0,VALID,22.7257,VALID,97,VALID,0,
2009-12-16, 02:59:04,VALID,1001.2,VALID,0,VALID,92.7151,VALID,0,VALID,22.7274,VALID,97,VALID,0,
2009-12-16, 03:00:04,VALID,1001.19,VALID,0,VALID,92.7762,VALID,0,VALID,22.7062,VALID,97,VALID,0.00546875,
2009-12-16, 03:01:04,VALID,1001.18,VALID,0,VALID,92.9211,VALID,0,VALID,22.7257,VALID,85,VALID,0.826563,
2009-12-16, 03:02:04,VALID,1001.21,VALID,0,VALID,93.0432,VALID,0,VALID,22.7452,VALID,85,VALID,0.810938,
2009-12-16, 03:03:04,VALID,1001.21,VALID,0,VALID,93.0051,VALID,0,VALID,22.786,VALID,85,VALID,0.460938,
2009-12-16, 03:04:04,VALID,1001.22,VALID,0,VALID,92.944,VALID,0,VALID,22.7452,VALID,85,VALID,0.0542969,
2009-12-16, 03:05:04,VALID,1001.21,VALID,0,VALID,92.883,VALID,0,VALID,22.7469,VALID,85,VALID,0,
2009-12-16, 03:06:04,VALID,1001.21,VALID,0,VALID,92.8983,VALID,0,VALID,22.7257,VALID,85,VALID,0,
2009-12-16, 03:07:04,VALID,1001.2,VALID,0,VALID,92.883,VALID,0,VALID,22.7257,VALID,85,VALID,0,
2009-12-16, 03:08:04,VALID,1001.19,VALID,0,VALID,92.9059,VALID,0,VALID,22.7274,VALID,85,VALID,0,
2009-12-16, 03:09:04,VALID,1001.17,VALID,0,VALID,93.1424,VALID,0,VALID,22.7664,VALID,94,VALID,0,
2009-12-16, 03:10:04,VALID,1001.16,VALID,0,VALID,93.3866,VALID,0,VALID,22.8623,VALID,98,VALID,0,
2009-12-16, 03:11:04,VALID,1001.14,VALID,0,VALID,93.4934,VALID,0,VALID,22.9598,VALID,103,VALID,0,
2009-12-16, 03:12:04,VALID,1001.13,VALID,0,VALID,93.501,VALID,0,VALID,23.0573,VALID,107,VALID,0,
2009-12-16, 03:13:04,VALID,1001.13,VALID,0,VALID,93.4171,VALID,0,VALID,23.0573,VALID,112,VALID,0,
2009-12-16, 03:14:04,VALID,1001.15,VALID,0,VALID,93.3484,VALID,0,VALID,23.0556,VALID,119,VALID,0,
2009-12-16, 03:15:04,VALID,1001.17,VALID,0,VALID,93.2797,VALID,0,VALID,23.0573,VALID,119,VALID,0,
2009-12-16, 03:16:04,VALID,1001.17,VALID,0,VALID,93.2568,VALID,0,VALID,23.0751,VALID,119,VALID,0,
2009-12-16, 03:17:04,VALID,1001.15,VALID,0,VALID,93.2645,VALID,0,VALID,23.0946,VALID,119,VALID,0,
2009-12-16, 03:18:04,VALID,1001.17,VALID,0,VALID,93.2492,VALID,0,VALID,23.1354,VALID,119,VALID,0,
2009-12-16, 03:19:04,VALID,1001.14,VALID,0,VALID,93.2568,VALID,0.112286,VALID,23.1354,VALID,134,VALID,0,
2009-12-16, 03:20:04,VALID,1001.13,VALID,0,VALID,93.2263,VALID,0,VALID,23.1336,VALID,139,VALID,0.897656,
2009-12-16, 03:21:04,VALID,1001.13,VALID,0,VALID,93.1729,VALID,0,VALID,23.1531,VALID,142,VALID,0.641797,
2009-12-16, 03:22:04,VALID,1001.13,VALID,0,VALID,93.0432,VALID,0,VALID,23.1549,VALID,142,VALID,0.429297,
2009-12-16, 03:23:04,VALID,1001.13,VALID,0,VALID,92.9593,VALID,0,VALID,23.1744,VALID,141,VALID,0.317187,
2009-12-16, 03:24:04,VALID,1001.15,VALID,0,VALID,92.9288,VALID,0,VALID,23.1744,VALID,125,VALID,0.291016,
2009-12-16, 03:25:04,VALID,1001.15,VALID,0,VALID,92.8677,VALID,0,VALID,23.1939,VALID,125,VALID,0.216016,
2009-12-16, 03:26:04,VALID,1001.14,VALID,0,VALID,92.8372,VALID,0,VALID,23.1939,VALID,123,VALID,0.267188,
2009-12-16, 03:27:04,VALID,1001.16,VALID,0,VALID,92.6999,VALID,0,VALID,23.1957,VALID,28,VALID,0.574219,
2009-12-16, 03:28:04,VALID,1001.15,VALID,0,VALID,92.6617,VALID,0,VALID,23.1762,VALID,24,VALID,0.554688,
2009-12-16, 03:29:04,VALID,1001.13,VALID,0,VALID,92.7075,VALID,0,VALID,23.1566,VALID,24,VALID,0.516797,
2009-12-16, 03:30:04,VALID,1001.16,VALID,0,VALID,92.7075,VALID,0,VALID,23.1566,VALID,24,VALID,0.514453,
2009-12-16, 03:31:04,VALID,1001.13,VALID,0,VALID,92.6846,VALID,0,VALID,23.1371,VALID,24,VALID,0.428125,
2009-12-16, 03:32:04,VALID,1001.13,VALID,0,VALID,92.5168,VALID,0,VALID,23.1176,VALID,24,VALID,0.455469,
2009-12-16, 03:33:04,VALID,1001.13,VALID,0,VALID,92.6083,VALID,0,VALID,23.0769,VALID,24,VALID,0.425781,
2009-12-16, 03:34:04,VALID,1001.11,VALID,0,VALID,92.4634,VALID,0,VALID,23.0396,VALID,24,VALID,0.365625,
2009-12-16, 03:35:04,VALID,1001.14,VALID,0,VALID,92.3794,VALID,0,VALID,22.9615,VALID,24,VALID,0.407031,
2009-12-16, 03:36:04,VALID,1001.13,VALID,0,VALID,92.5549,VALID,0,VALID,22.9208,VALID,24,VALID,0.239453,
2009-12-16, 03:37:04,VALID,1001.1,VALID,0,VALID,92.6465,VALID,0,VALID,22.942,VALID,24,VALID,0,
2009-12-16, 03:38:04,VALID,1001.08,VALID,0,VALID,92.677,VALID,0,VALID,22.9208,VALID,24,VALID,0,
2009-12-16, 03:39:04,VALID,1001.09,VALID,0,VALID,92.738,VALID,0,VALID,22.9013,VALID,24,VALID,0,
2009-12-16, 03:40:04,VALID,1001.07,VALID,0,VALID,92.7533,VALID,0,VALID,22.9225,VALID,24,VALID,0,
2009-12-16, 03:41:04,VALID,1001.09,VALID,0,VALID,92.7991,VALID,0,VALID,22.903,VALID,24,VALID,0,
2009-12-16, 03:42:04,VALID,1001.11,VALID,0,VALID,92.8448,VALID,0,VALID,22.903,VALID,24,VALID,0,
2009-12-16, 03:43:04,VALID,1001.11,VALID,0,VALID,92.883,VALID,0,VALID,22.8835,VALID,24,VALID,0,
2009-12-16, 03:44:04,VALID,1001.12,VALID,0,VALID,92.9288,VALID,0,VALID,22.903,VALID,24,VALID,0,
2009-12-16, 03:45:04,VALID,1001.12,VALID,0,VALID,92.9288,VALID,0,VALID,22.8835,VALID,24,VALID,0,
2009-12-16, 03:46:04,VALID,1001.11,VALID,0,VALID,92.8906,VALID,0,VALID,22.8445,VALID,24,VALID,0,
2009-12-16, 03:47:04,VALID,1001.09,VALID,0,VALID,92.8983,VALID,0,VALID,22.7842,VALID,24,VALID,0.366016,
2009-12-16, 03:48:04,VALID,1001.07,VALID,0,VALID,92.8067,VALID,0,VALID,22.7469,VALID,24,VALID,0.209375,
2009-12-16, 03:49:04,VALID,1001.07,VALID,0,VALID,92.6617,VALID,0,VALID,22.6689,VALID,24,VALID,0.213672,
2009-12-16, 03:50:04,VALID,1001.06,VALID,0,VALID,92.677,VALID,0,VALID,22.5909,VALID,24,VALID,0.389453,
2009-12-16, 03:51:04,VALID,1001.05,VALID,0,VALID,92.8296,VALID,0,VALID,22.5714,VALID,24,VALID,0.391016,
2009-12-16, 03:52:04,VALID,1001.04,VALID,0,VALID,92.8677,VALID,0,VALID,22.5519,VALID,24,VALID,0.335938,
2009-12-16, 03:53:04,VALID,1001.02,VALID,0,VALID,92.7914,VALID,0,VALID,22.5128,VALID,24,VALID,0.353906,